sat.trackr.live / text

‹ back to catalog

YAOGAN-31 04A

NORAD 47854 · 2021-020A

PAYLOAD ACTIVE UNKNOWN

§ Identity

Operator
Country
PRC
Launch date
2021-03-13
Launch site
JSC
Launch vehicle
Mass (kg)
RCS (m²)

External: N2YO · Heavens-Above · Gunter

§ Orbital elements

Epoch: 2026-05-25T04:38:06.809568Z

Period
107.03 min
Inclination
63.4069°
Eccentricity
0.0172991
Mean motion
13.45446019 rev/d
Perigee alt
959.9 km
Apogee alt
1,218.2 km
Semi-major
7,467.2 km
B*
-2.6002e-5
RAAN
317.0824°
Arg perigee
0.4540°
Mean anomaly
359.6613°
Rev number
25,537

§ Raw data

YAOGAN-31 04A1 47854U 21020A   26145.19313437 -.00000107  00000+0 -26002-4 0  99952 47854  63.4069 317.0824 0172991   0.4540 359.6613 13.45446019255377

JSON: /api/v1/satellites/47854 · /tle

For live sub-satellite position, see the globe view (requires WebGL).

§ Visibility from observer

Set your observer location to see the next 7 days of passes ≥ 10°. The values pass through the URL so the page stays shareable.

No JS? Fill the form by hand. The geolocation button needs JavaScript.